User: anonymous   Login
Location: Bergnerzell
(49.1816°N, 10.2565°E)
Time: 20:54:28
(UTC+00:00)
Language:

Cosmos 2228 Rocket - Orbit

View from above orbital plane
View from above orbital plane
View from above satellite
View from above satellite

Ground track
Ground track

The orbit data is extracted from the following two-line orbital elements,

1 22287U 92094B   24206.43668011  .00000945  00000-0  12379-3 0  9991
2 22287  82.5241 185.0558 0025687 119.2241 241.1545 14.79137777680790
Epoch (UTC): 24 July 2024 10:28:49
Eccentricity: 0.0025687
inclination: 82.5241°
perigee height: 614 km
apogee height: 650 km
right ascension of ascending node: 185.0558°
argument of perigee: 119.2241°
revolutions per day: 14.79137777
mean anomaly at epoch: 241.1545°
orbit number at epoch: 68079

The dashed part of the orbit path shows where the satellite is in the earth's shadow,  

DLR